Regional Weather Roundup
Issued by NWS Cleveland, OH

Home | Current Version | Previous Version | Graphics & Text | Print | Product List | Glossary On
Versions: 1 2 3 4 5 6 7 8 9 10 11 12 13 14 15 16 17 18 19 20 21 22 23 24 25 26 27 28 29 30 31 32 33 34 35 36 37 38 39 40 41 42 43 44 45 46 47 48 49 50
000
ASUS41 KCLE 180710
RWRCLE
OHIO REGIONAL WEATHER ROUNDUP
NATIONAL WEATHER SERVICE CLEVELAND, OH
200 AM EST SAT NOV 18 2017

NOTE: "FAIR" INDICATES FEW OR NO CLOUDS BELOW 12,000 FEET WITH NO
SIGNIFICANT WEATHER AND/OR OBSTRUCTIONS TO VISIBILITY.

OHZ001>008-015>018-024>027-034-035-043-044-180800-
   NORTHWEST OHIO

CITY           SKY/WX    TMP DP  RH WIND       PRES   REMARKS
DEFIANCE       CLOUDY    44  40  85 S8        29.63F
FINDLAY        LGT RAIN  43  39  86 S10       29.65F
TOLEDO EXPRESS LGT RAIN  43  43 100 S10G17    29.64F
TOLEDO EXEC    LGT RAIN  42  40  92 S14       29.65F FOG
LIMA           CLOUDY    44  41  89 S14       29.64F
$$

OHZ009>014-019>023-028>033-038-089-180800-
   NORTHEAST OHIO

CITY           SKY/WX    TMP DP  RH WIND       PRES   REMARKS
CLE-HOPKINS    LGT RAIN  46  32  58 S13G21    29.77R
CLE-LAKEFRONT  LGT RAIN  45  30  55 S9        29.74R
CUY CO. ARPT   NOT AVBL
LORAIN-ELYRIA  LGT RAIN  42  30  62 S15       29.72F
ASHTABULA      CLOUDY    41  29  62 S14G23    29.75F
AKRON-CANTON   CLOUDY    43  28  55 S10       29.75F
WOOSTER        LGT RAIN  43  30  60 SW10      29.78R
MANSFIELD      RAIN      42  36  79 SE16      29.71F
YOUNGSTOWN     CLOUDY    42  27  55 S13G21    29.77F
$$

OHZ042-051>053-060>062-070>072-077>081-180800-
  SOUTHWEST OHIO

CITY           SKY/WX    TMP DP  RH WIND       PRES   REMARKS
CINC-COVINGTON CLOUDY    55  40  56 S16G26    29.70F
CINC-LUNKEN    CLOUDY    50  41  71 MISG      29.73F
HAMILTON       LGT RAIN  47  43  86 CALM      29.71F
DAYTON         LGT RAIN  48  41  76 S20G26    29.68F
WRIGHT-PAT AFB LGT RAIN  48  41  76 S15       29.68F
DAYTON GENERAL LGT RAIN  49  40  71 S14       29.69F
WILMINGTON     LGT RAIN  49  39  68 S15       29.71F
$$

OHZ036-037-039>041-045>050-054>059-063>069-073>076-082>088-180800-
  CENTRAL AND SOUTHEAST OHIO

CITY           SKY/WX    TMP DP  RH WIND       PRES   REMARKS
COLUMBUS       LGT RAIN  47  36  65 S7        29.73F
OSU AIRPORT    LGT RAIN  44  37  76 S12       29.71F
BOLTON FIELD   LGT RAIN  42  36  79 S8        29.73F
RICKENBACK AFB LGT RAIN  47  34  60 S12       29.73F
NEWARK         LGT RAIN  47  31  53 SW5       29.76S
MARION         RAIN      42  38  85 S13       29.70F FOG
LANCASTER      CLOUDY    51  32  48 S13       29.73F
ZANESVILLE     CLOUDY    45  28  51 S9        29.76F
NEW PHILLY     NOT AVBL
$$




USA.gov is the U.S. government's official web portal to all federal, state and local government web resources and services.